TimeMDT,TemperatureF,Dew PointF,Humidity,Sea Level PressureIn,VisibilityMPH,Wind Direction,Wind SpeedMPH,Gust SpeedMPH,PrecipitationIn,Events,Conditions,WindDirDegrees,DateUTC
12:53 AM,59.0,48.9,69,30.16,10.0,ENE,5.8,-,N/A,,Clear,70,2013-07-31 06:53:00
1:53 AM,59.0,48.0,67,30.20,10.0,SSE,6.9,-,N/A,,Clear,150,2013-07-31 07:53:00
3:53 AM,53.1,48.0,83,30.19,10.0,Calm,Calm,-,N/A,,Clear,0,2013-07-31 09:53:00
4:53 AM,54.0,46.0,75,30.19,10.0,North,-9999.0,-,N/A,,Clear,0,2013-07-31 10:53:00
5:53 AM,51.1,46.0,83,30.20,10.0,South,4.6,-,N/A,,Clear,170,2013-07-31 11:53:00
7:53 AM,60.1,48.0,64,30.20,10.0,Calm,Calm,-,N/A,,Clear,0,2013-07-31 13:53:00
8:53 AM,62.1,48.9,62,30.22,10.0,Calm,Calm,-,N/A,,Clear,0,2013-07-31 14:53:00
11:53 AM,78.1,48.0,35,30.14,10.0,Variable,3.5,-,N/A,,Clear,0,2013-07-31 17:53:00
12:53 PM,81.0,46.9,30,30.11,10.0,Variable,4.6,-,N/A,,Clear,0,2013-07-31 18:53:00
1:53 PM,84.0,48.0,28,30.07,10.0,NW,6.9,-,N/A,,Clear,320,2013-07-31 19:53:00
2:53 PM,80.1,50.0,35,30.09,10.0,West,8.1,-,N/A,,Clear,270,2013-07-31 20:53:00
3:53 PM,84.0,43.0,24,30.04,10.0,NNW,3.5,-,N/A,,Scattered Clouds,330,2013-07-31 21:53:00
4:53 PM,86.0,42.1,21,30.00,10.0,Variable,3.5,-,N/A,,Clear,0,2013-07-31 22:53:00
5:53 PM,84.9,44.1,24,30.01,10.0,NNW,9.2,-,N/A,,Partly Cloudy,340,2013-07-31 23:53:00
6:53 PM,82.9,46.9,28,29.99,10.0,North,4.6,-,0.00,Rain,Light Rain,10,2013-08-01 00:53:00
7:53 PM,79.0,52.0,39,30.00,10.0,ESE,6.9,-,0.00,,Mostly Cloudy,110,2013-08-01 01:53:00
8:23 PM,78.8,46.4,32,30.14,10.0,South,21.9,35.7,0.00,Rain-Thunderstorm,Light Rain,170,2013-08-01 02:23:00
8:38 PM,80.6,42.8,26,30.12,10.0,SE,11.5,-,0.00,,Mostly Cloudy,140,2013-08-01 02:38:00
8:53 PM,79.0,44.1,29,30.01,10.0,South,9.2,-,0.00,,Mostly Cloudy,170,2013-08-01 02:53:00
9:53 PM,75.9,44.1,32,30.00,10.0,SE,9.2,-,N/A,,Clear,140,2013-08-01 03:53:00
10:53 PM,70.0,50.0,49,30.00,10.0,West,5.8,-,0.00,,Partly Cloudy,260,2013-08-01 04:53:00
11:53 PM,70.0,51.1,51,30.02,10.0,NNE,4.6,-,0.00,,Partly Cloudy,20,2013-08-01 05:53:00